Regional Weather Roundup
Issued by NWS Charleston, WV

Home | Current Version | Previous Version | Graphics & Text | Print | Product List | Glossary On
Versions: 1 2 3 4 5 6 7 8 9 10 11 12 13 14 15 16 17 18 19 20 21 22 23 24 25 26 27 28 29 30 31 32 33 34 35 36 37 38 39 40 41 42 43 44 45 46 47 48 49 50
000
ASUS41 KRLX 052310
RWRRLX
West Virginia Regional Weather Roundup
National Weather Service Charleston WV
600 PM EST FRI FEB 05 2016

Note: "fair" indicates few or no clouds below 12,000 feet with no
significant weather and/or obstructions to visibility.

WVZ003-060000-
Northern Panhandle of West Virginia

CITY           SKY/WX    TMP DP  RH WIND       PRES   REMARKS
WHEELING         N/A     33  14  45 W5        30.35R
$$

WVZ009-060000-
Northwest West Virginia

CITY           SKY/WX    TMP DP  RH WIND       PRES   REMARKS
PARKERSBURG      N/A     36  15  42 SW3       30.41R
$$

WVZ006-060000-
Western West Virginia

CITY           SKY/WX    TMP DP  RH WIND       PRES   REMARKS
HUNTINGTON       N/A     39  13  34 S3        30.39S
$$

WVZ015-060000-
West Central West Virginia

CITY           SKY/WX    TMP DP  RH WIND       PRES   REMARKS
CHARLESTON       N/A     37  14  38 CALM      30.39S
$$

WVZ022-031-060000-
North Central West Virginia

CITY           SKY/WX    TMP DP  RH WIND       PRES   REMARKS
CLARKSBURG       N/A     34  15  46 W3        30.36R
MORGANTOWN       N/A     34  13  41 NW3       30.36R
$$

WVZ025-035-042-045-060000-
Southern West Virginia

CITY           SKY/WX    TMP DP  RH WIND       PRES   REMARKS
BECKLEY          N/A     30  12  47 N5        30.32R
LOGAN            N/A     36  12  38 CALM      30.36R
BLUEFIELD        N/A     30   8  39 VRB5      30.31R
LEWISBURG        N/A     35  14  43 CALM      30.33R
$$

WVZ047-060000-
Northern Mountains of West Virginia

CITY           SKY/WX    TMP DP  RH WIND       PRES   REMARKS
ELKINS           N/A     29  13  51 NW6       30.34R
$$

WVZ052-060000-
Eastern Panhandle of West Virginia

CITY           SKY/WX    TMP DP  RH WIND       PRES   REMARKS
MARTINSBURG      N/A     35  14  42 CALM      30.35R
PETERSBURG       N/A     34  15  46 CALM      30.36R
$$



USA.gov is the U.S. government's official web portal to all federal, state and local government web resources and services.